Theta_e
301 300 301 301 302 301 301 301 300 299 299 293 290 291 284 284 281 290 290 292 291 284 278 281 279 276 278 282 281 282 280 279 280 278 279 275 279 276 276 275 274 275 274 274 273 273 269 271 268 269 269 271 272 273 270 272 272 275 270 270 271 277 260 259 259 259 264 268 271 267 267 268 268 269 269 267 265 267 266 266 268 264 266 264 264 263 269
301 300 301 301 301 301 300 300 299 299 299 292 290 286 284 284 284 286 291 293 291 281 273 274 276 277 280 279 278 282 280 279 278 278 279 277 276 275 275 276 278 274 278 275 272 276 267 273 271 270 272 270 275 274 271 272 272 273 269 270 273 260 262 261 260 253 255 257 263 260 262 264 260 261 267 267 268 267 267 268 265 264 265 265 263 258 267
301 300 301 300 300 300 299 299 299 298 298 297 290 284 285 283 285 285 288 290 288 278 280 277 276 276 276 276 276 277 279 280 280 279 278 281 278 277 275 277 278 277 278 275 276 276 274 270 275 273 273 272 276 273 273 273 273 276 276 280 275 269 263 261 256 256 254 251 251 253 259 263 262 262 266 266 266 266 266 263 266 261 266 266 263 262 270
299 299 300 300 299 299 298 298 298 298 298 298 288 286 281 282 274 283 280 285 284 283 285 281 278 276 276 275 276 277 275 279 281 281 279 281 280 279 278 279 279 276 276 273 273 273 276 273 271 272 270 272 272 274 274 272 273 277 281 280 276 264 265 266 266 263 261 262 261 263 267 263 260 262 266 265 266 270 270 268 264 262 266 264 266 267 267
298 299 299 299 299 299 298 298 297 297 297 296 287 286 283 280 276 277 275 280 281 278 282 280 280 276 279 273 277 274 276 278 278 282 275 280 279 279 278 277 275 274 274 272 272 274 272 275 273 272 272 273 273 272 272 273 274 279 279 280 271 262 264 266 266 266 267 267 265 265 268 264 263 263 263 265 267 268 268 266 263 270 263 259 266 267 265
299 298 299 298 298 298 298 298 298 298 297 296 289 281 283 274 279 281 281 275 274 275 276 280 278 279 279 275 279 276 275 276 274 279 280 279 280 275 277 277 277 276 275 274 270 272 272 272 270 274 274 273 271 272 272 270 275 277 275 279 273 268 265 268 267 266 267 268 268 267 265 264 264 264 264 263 266 266 264 264 266 263 261 260 265 266 265
298 297 297 297 297 297 297 297 296 296 295 296 287 279 282 281 280 281 282 276 278 278 278 279 278 276 277 276 277 274 275 274 276 276 276 278 275 278 270 273 275 276 276 275 271 272 267 268 272 271 272 272 272 269 270 272 272 273 272 274 274 270 266 268 268 266 267 267 268 268 265 265 263 264 265 266 265 264 265 265 265 264 263 265 265 266 266
297 297 298 297 297 296 296 296 296 295 296 291 284 284 278 278 277 275 280 279 278 278 278 277 276 274 277 273 274 275 275 273 276 278 276 272 274 278 274 274 276 276 276 275 272 273 273 272 270 274 271 271 272 270 271 268 271 272 270 271 273 270 266 272 268 265 265 267 268 267 267 266 264 266 266 266 265 265 266 265 266 266 264 266 266 265 265
296 296 296 296 296 296 295 295 296 295 295 285 284 282 285 282 284 281 275 273 276 276 276 274 274 272 274 272 273 275 275 274 276 275 278 275 273 274 273 275 274 274 272 272 271 274 274 274 273 274 273 269 274 270 269 274 267 269 269 270 268 271 267 270 267 263 263 267 267 267 267 266 265 264 265 264 264 263 265 264 266 265 264 265 265 263 264
296 296 296 296 297 296 296 295 294 294 295 286 283 280 285 284 283 282 279 272 278 274 276 275 273 270 274 274 273 273 273 275 275 271 276 277 277 276 274 273 272 270 271 270 271 274 275 275 276 276 277 277 276 276 275 275 272 270 269 272 268 269 267 265 264 262 262 266 267 266 265 263 259 261 264 266 266 267 267 267 268 268 268 264 261 263 269
296 296 296 295 295 295 295 296 295 295 291 284 282 281 283 281 278 280 279 271 273 275 273 272 271 273 274 275 273 275 273 274 274 269 270 275 273 276 275 273 270 269 269 272 277 278 278 278 278 278 277 276 275 276 276 275 275 274 270 268 268 270 268 266 268 261 263 264 264 264 261 254 257 269 271 269 266 266 265 265 266 268 269 267 269 269 271
295 295 296 296 296 295 295 293 293 294 292 288 287 283 285 284 282 280 274 270 271 275 272 270 271 272 272 273 273 272 271 271 271 273 270 271 273 273 272 271 271 266 274 276 276 277 277 278 277 277 276 275 275 275 275 274 274 275 274 270 269 268 269 266 267 261 262 260 262 259 254 257 268 272 271 271 270 269 267 267 268 269 270 270 269 270 270
294 295 295 295 294 294 295 295 294 293 293 289 286 281 285 286 281 277 275 272 269 272 270 271 274 274 274 273 272 272 273 273 273 273 272 271 271 272 272 271 270 272 278 274 274 273 270 268 270 270 271 272 273 273 273 273 272 274 274 274 271 268 267 268 262 263 259 257 260 253 256 265 268 268 269 270 269 269 266 265 267 269 270 270 269 270 271
295 294 294 294 295 294 294 294 294 294 293 291 286 285 286 284 278 277 276 272 271 274 273 272 273 272 273 272 272 272 271 271 271 272 269 272 270 270 273 275 276 278 277 275 273 272 268 268 264 265 265 267 267 266 270 273 273 273 272 273 274 271 270 268 263 267 258 260 260 260 266 262 262 262 264 267 265 265 265 261 266 269 270 270 269 270 271
293 294 294 294 294 293 293 293 293 292 293 292 287 285 284 285 283 280 279 275 270 273 274 267 271 271 272 272 272 271 271 270 269 269 271 273 271 273 274 276 278 276 276 272 266 266 264 263 261 261 261 260 257 260 267 265 272 274 273 273 274 273 268 269 264 263 265 261 258 258 258 256 261 266 270 271 272 270 269 265 265 269 270 271 270 269 270
293 294 293 292 294 293 293 292 292 293 292 291 288 285 284 285 284 283 279 275 272 266 271 274 275 273 271 271 272 270 269 269 269 269 268 268 269 270 272 275 276 276 273 269 265 262 262 260 260 259 258 259 262 261 256 260 262 267 273 273 273 273 273 270 266 264 263 261 259 258 256 259 267 267 268 268 271 270 268 262 258 268 270 271 270 270 270
293 293 293 292 293 293 293 293 292 291 292 292 284 284 283 286 283 281 277 276 274 269 276 276 275 274 272 270 272 270 271 268 270 265 265 267 269 271 269 274 275 274 271 267 265 262 260 261 262 261 261 262 260 260 265 258 257 259 267 271 270 269 269 268 265 263 264 262 260 258 261 260 266 270 269 269 270 270 267 251 254 268 271 271 270 270 270
293 293 293 292 292 291 291 290 292 292 291 291 287 282 282 285 283 282 278 275 271 270 276 277 274 270 270 271 269 272 273 270 268 270 267 269 268 266 263 267 266 270 271 266 264 262 261 261 258 258 258 263 262 263 258 263 258 262 263 266 265 265 265 266 262 263 264 264 261 263 263 268 269 270 269 270 271 269 258 255 263 271 271 271 271 271 271
292 291 291 292 291 291 292 292 292 291 291 289 287 284 283 284 284 282 279 275 273 268 276 278 278 274 276 276 273 273 272 272 271 267 267 266 268 270 270 265 271 263 268 264 265 262 261 260 261 260 259 261 262 259 264 261 261 262 264 263 264 265 266 266 266 263 262 263 261 261 263 268 270 269 269 271 267 254 256 268 269 268 269 271 272 271 272
291 291 292 290 290 290 290 290 291 291 291 291 288 281 282 284 283 282 277 272 274 272 275 275 276 273 275 271 270 270 271 271 271 268 267 264 268 268 266 263 268 268 264 263 262 263 261 260 261 262 260 261 261 263 260 263 267 264 261 267 264 265 263 262 262 265 264 264 261 260 256 265 271 269 267 270 264 264 271 267 267 272 271 271 272 272 272
291 291 290 290 290 291 290 290 291 290 290 289 288 280 279 283 283 283 281 278 273 269 271 278 278 276 276 274 275 274 272 270 270 268 270 269 270 266 261 262 266 265 262 263 260 262 260 259 261 260 261 261 261 262 260 262 263 268 267 265 264 270 262 263 264 267 260 261 258 260 267 270 272 270 265 268 272 274 271 271 269 269 271 271 271 271 271
290 290 290 289 289 289 288 288 289 288 289 289 287 282 278 281 282 282 282 280 273 271 273 277 279 277 278 279 278 278 276 275 276 276 271 269 271 269 268 269 268 266 265 264 261 261 263 262 262 258 259 260 261 261 261 260 259 265 265 265 259 269 266 268 263 269 265 263 266 271 270 272 272 273 273 273 274 272 272 273 272 270 270 270 271 271 271
289 289 289 289 288 289 290 289 288 289 288 288 287 280 277 279 280 282 280 274 277 278 279 277 278 278 278 279 280 280 279 280 279 277 276 271 269 271 269 269 268 271 269 269 265 265 264 263 262 262 260 261 261 261 261 262 261 264 263 269 268 268 270 267 262 265 270 272 268 268 267 271 271 274 276 273 274 272 273 273 273 273 272 272 272 271 271
288 288 288 289 290 288 287 288 289 287 288 288 286 281 278 280 280 279 276 277 272 269 273 275 272 269 272 273 277 280 280 279 279 279 279 277 267 268 271 272 271 270 269 271 273 268 265 264 264 264 261 262 260 258 259 259 261 264 264 265 266 268 269 267 265 265 267 262 272 270 269 271 272 273 274 273 273 275 274 274 274 273 272 272 271 271 270
288 289 289 289 287 288 287 288 288 288 287 286 285 283 282 278 279 278 273 268 270 268 263 268 271 274 276 278 279 277 278 280 281 280 278 277 274 269 268 272 274 270 269 271 271 267 266 264 263 262 260 265 265 260 265 261 261 265 262 265 265 266 270 267 267 265 266 266 268 269 271 272 273 274 273 273 273 272 273 275 274 273 272 271 271 270 269
289 288 288 287 288 288 287 285 285 287 287 286 284 278 276 276 278 278 276 276 274 271 263 263 268 275 276 274 273 276 279 279 278 278 278 277 277 276 274 275 273 273 272 271 268 267 267 265 265 265 262 263 268 262 261 265 265 264 263 261 261 262 264 263 265 264 268 268 269 270 270 270 272 273 273 273 273 273 272 273 272 270 271 270 270 271 272
287 287 287 287 286 286 286 287 286 285 286 285 281 278 277 277 278 276 273 273 267 264 267 263 267 268 270 271 275 276 277 276 276 276 276 276 276 276 275 274 272 272 271 270 272 269 268 267 266 263 266 265 266 259 263 262 265 264 261 258 258 262 263 259 263 263 263 264 262 261 262 263 270 271 272 273 274 274 274 273 272 271 271 270 270 269 268
286 287 287 286 285 285 286 285 284 285 284 285 281 278 275 274 276 277 277 275 270 264 264 263 264 265 268 268 274 275 275 276 276 275 275 274 275 275 274 273 273 271 270 269 265 266 266 264 264 268 268 264 263 260 261 264 262 256 255 254 256 255 254 256 258 260 262 262 260 261 260 266 269 269 270 269 269 272 273 273 272 272 272 272 271 269 268
286 286 285 286 286 285 283 284 284 283 283 283 274 272 269 273 275 277 277 277 274 268 266 268 269 263 261 266 272 271 273 274 274 273 273 273 273 273 273 272 271 271 270 269 269 268 267 266 269 266 264 265 264 261 262 260 262 259 251 254 256 256 257 256 256 256 258 261 259 259 260 262 266 264 263 264 266 269 269 268 269 268 269 269 267 268 266
285 286 286 284 285 284 283 283 282 282 283 274 270 265 261 265 271 271 274 275 273 271 266 263 261 264 265 265 267 270 271 273 273 273 272 272 272 272 272 271 270 273 270 269 269 265 268 267 268 269 269 270 265 261 261 263 258 250 253 253 255 255 255 256 257 255 255 258 258 259 259 263 265 266 262 262 263 265 264 263 263 263 262 263 262 261 262
285 285 284 284 283 283 283 283 282 283 280 264 260 259 260 259 268 276 277 276 275 272 267 267 264 268 264 264 267 269 271 272 272 272 272 272 272 272 273 273 272 272 267 269 269 268 270 266 267 268 270 271 270 265 263 263 252 251 250 252 253 252 253 253 256 258 258 257 257 258 262 262 260 265 263 260 260 262 262 261 262 262 261 260 259 259 258
284 284 284 282 282 282 282 282 283 281 273 266 263 262 260 266 271 276 279 279 274 270 266 261 260 259 259 265 266 269 271 272 272 272 271 274 270 273 272 273 270 273 273 269 270 269 267 269 268 267 262 266 265 254 250 252 251 247 249 251 252 252 252 253 254 257 256 256 256 261 263 259 259 257 257 258 259 260 260 260 259 259 260 259 259 258 257
284 283 282 282 282 282 282 282 281 279 271 275 279 279 280 281 281 281 280 274 272 270 270 264 259 261 260 258 262 265 269 268 265 268 267 273 268 271 269 272 272 271 276 271 267 266 270 269 270 263 258 259 255 251 247 244 245 248 250 250 251 251 251 252 255 255 254 254 256 254 254 256 256 257 257 258 258 258 258 259 258 258 257 256 256 257 257
282 282 281 281 281 282 281 281 279 278 277 267 261 270 276 280 277 280 275 272 269 268 268 263 260 256 257 261 257 263 268 263 260 263 263 270 270 270 269 270 271 268 271 268 270 266 264 265 259 258 255 251 254 250 245 245 248 248 249 250 250 250 250 251 253 251 251 252 255 256 255 256 258 257 256 255 255 256 257 256 257 256 255 255 255 255 256
281 281 281 281 281 281 280 279 271 270 263 267 269 273 276 279 278 276 273 269 264 264 262 260 257 252 252 254 253 259 264 262 259 262 264 267 274 269 271 268 270 266 268 273 259 257 256 255 257 250 246 249 246 243 244 245 246 248 248 248 249 249 248 248 249 250 250 251 254 254 255 254 254 253 253 253 253 254 254 254 255 255 254 254 254 254 254
281 280 280 280 279 278 273 274 270 266 262 264 267 275 280 279 277 273 271 269 266 261 259 255 255 252 252 250 252 256 265 261 262 263 265 268 268 272 270 269 265 266 266 260 254 253 250 253 254 246 247 244 241 242 244 246 246 247 247 247 248 248 247 247 248 249 249 251 253 252 253 253 252 252 252 252 252 252 252 252 252 253 253 253 253 253 253
279 278 278 277 269 263 261 262 270 266 263 271 276 280 278 277 275 273 269 267 267 267 259 254 253 252 252 252 254 258 262 256 264 263 264 265 265 269 268 266 264 267 262 257 255 251 251 255 247 243 243 242 243 246 247 247 247 246 247 248 248 249 248 248 249 249 248 251 252 250 251 251 251 250 250 250 251 251 250 250 250 250 250 251 251 251 251
277 277 267 266 262 259 257 260 263 270 277 277 277 272 267 268 261 263 263 258 262 263 257 257 251 252 253 252 251 260 261 260 264 260 262 266 266 264 267 267 266 263 253 254 253 256 252 249 245 244 244 247 248 248 247 248 249 249 248 248 248 248 248 248 248 247 247 248 249 248 248 249 249 249 248 249 250 249 249 250 250 250 250 250 251 251 251
274 267 260 258 256 256 259 263 271 275 273 272 269 262 260 260 258 255 255 255 255 253 255 253 250 252 251 251 252 261 262 258 257 261 260 265 264 262 266 262 266 264 257 256 255 261 249 248 247 245 243 246 246 247 249 248 249 249 249 249 248 248 248 248 248 247 246 247 248 248 248 247 246 247 248 248 249 249 249 248 248 249 249 249 250 250 249
266 266 265 261 257 260 270 270 272 268 266 259 256 256 252 256 255 251 255 250 249 252 252 249 252 252 253 251 250 250 261 258 255 256 259 261 269 263 264 263 264 260 253 253 253 257 250 245 247 245 242 245 245 248 248 248 247 248 248 248 248 248 248 248 248 248 248 248 249 249 249 249 249 248 247 247 247 247 247 247 247 247 247 247 249 248 247
268 266 264 260 260 259 262 266 261 258 256 252 251 251 250 249 250 251 250 246 246 247 250 249 250 249 250 250 251 248 257 260 259 261 260 258 266 268 261 259 264 256 252 251 255 254 249 246 244 242 242 246 246 248 248 248 248 248 248 248 248 248 248 248 248 248 248 247 248 248 249 248 248 248 248 247 247 247 246 246 245 246 246 245 246 247 248
269 266 264 265 264 263 259 256 257 253 251 251 246 244 245 246 248 248 248 245 245 246 248 249 246 247 247 250 250 252 252 257 257 260 260 259 266 262 258 258 259 254 249 253 254 250 249 243 243 242 245 247 248 248 248 247 247 247 247 248 248 248 247 247 247 247 248 247 247 247 248 248 247 247 247 246 246 246 245 245 245 245 245 246 247 247 247
272 270 265 254 254 254 253 252 254 250 245 245 244 241 242 241 244 243 244 247 249 246 247 250 249 253 253 252 250 253 253 260 258 260 260 259 265 262 256 255 254 250 251 253 250 245 242 241 241 243 246 247 247 247 247 247 247 247 247 248 248 248 247 246 246 246 247 247 246 247 247 247 246 246 245 244 243 243 244 244 245 245 245 245 245 246 246
265 262 256 250 251 250 252 247 250 247 244 243 241 238 240 240 243 243 242 244 247 245 247 245 246 245 243 249 247 248 253 258 264 260 257 258 257 254 254 251 251 254 255 248 246 242 241 242 243 245 246 247 247 247 247 247 247 247 247 247 248 248 247 246 247 246 246 247 247 247 247 246 245 246 245 244 244 243 243 244 245 246 246 245 245 246 246
254 253 249 249 248 249 249 246 247 243 238 242 247 240 241 239 242 242 241 244 245 245 247 247 246 245 244 247 248 249 254 252 260 254 251 255 253 253 251 250 252 251 248 244 245 244 244 242 245 246 246 245 246 246 247 247 247 246 245 246 247 247 246 246 245 245 245 246 246 246 246 246 246 245 244 244 245 245 244 243 245 245 245 245 245 245 246
252 247 245 246 245 246 242 239 242 239 243 244 242 241 242 243 242 243 247 246 246 246 245 246 245 245 243 246 245 247 250 250 252 251 252 253 252 249 252 252 251 247 245 244 242 241 241 243 244 245 246 246 246 246 246 246 246 246 246 244 245 246 246 245 245 245 245 245 245 245 245 246 245 244 244 244 245 245 244 244 245 245 245 244 244 244 245
251 250 248 246 244 243 243 239 240 242 242 241 241 242 243 244 246 246 247 245 245 246 246 246 245 246 243 244 246 249 250 250 248 250 249 248 250 251 252 246 241 242 242 240 240 240 242 244 245 246 246 246 246 246 246 246 246 246 245 245 245 245 246 245 245 245 245 245 244 243 243 243 243 244 244 243 244 244 245 245 244 244 244 244 244 245 244
246 247 246 243 242 242 241 241 242 242 239 241 246 245 246 245 243 243 245 244 246 246 244 244 242 243 244 248 248 248 249 248 246 247 247 245 249 247 245 244 240 240 240 240 240 242 243 244 245 245 246 246 246 246 245 245 245 245 245 245 245 245 245 244 244 245 245 243 243 243 243 243 243 243 242 243 242 243 244 244 244 244 244 244 244 244 244
249 243 241 240 242 241 241 243 241 240 243 243 244 244 243 243 243 244 246 246 244 244 245 243 242 242 243 246 246 246 246 247 244 243 244 242 241 239 239 237 239 239 240 240 240 242 243 245 246 246 246 246 246 246 246 246 245 245 245 245 245 245 245 245 245 245 244 243 243 243 243 243 243 243 243 243 243 243 244 244 244 244 243 243 243 243 243
247 244 245 241 240 242 243 241 240 239 242 244 244 244 245 244 244 245 245 245 244 243 243 246 247 244 243 244 241 242 241 242 241 242 239 237 236 237 238 235 236 237 239 241 242 243 244 245 245 244 245 245 246 246 245 245 246 246 245 246 246 245 245 245 245 245 244 243 243 243 243 243 242 242 242 242 243 243 243 244 244 243 242 242 242 241 242
246 246 245 245 243 242 243 241 242 241 243 244 244 244 245 244 244 245 248 245 244 240 238 240 240 241 241 241 239 239 241 242 240 238 237 235 236 234 235 237 239 240 241 243 244 244 244 245 244 244 244 244 245 246 246 245 245 245 246 245 245 245 245 245 245 244 243 243 243 243 242 242 242 242 242 242 242 242 242 244 243 242 241 241 240 240 240
242 242 242 245 243 243 243 241 240 240 242 244 244 245 246 244 246 246 247 243 240 242 241 238 240 240 240 238 239 240 242 241 237 238 237 239 239 236 237 239 241 242 243 243 243 244 245 244 245 245 244 245 245 245 245 245 245 245 245 245 245 244 244 244 244 243 243 243 242 241 242 242 241 241 242 242 242 242 241 241 242 242 240 240 240 239 238
Wind_Speed
21 22 22 22 20 20 18 18 17 17 19 6 4 1 4 5 12 2 13 13 11 7 13 10 10 11 10 5 12 11 13 11 4 5 8 9 9 8 10 10 8 11 9 10 11 10 8 10 13 6 8 16 15 11 10 9 6 6 3 5 4 8 1 3 6 4 4 8 8 4 3 3 5 6 8 4 8 10 8 8 7 7 9 10 9 7 3
23 22 22 20 20 19 18 17 18 17 16 5 3 4 5 6 9 6 6 12 11 9 13 8 12 13 11 15 17 12 12 10 12 13 12 9 5 11 8 11 14 11 11 9 13 12 10 12 17 12 14 11 12 16 14 12 8 10 7 8 6 3 4 6 9 4 5 5 2 3 2 3 3 4 6 9 9 7 7 6 1 8 12 14 9 18 6
22 22 22 22 20 20 19 17 15 16 16 10 1 5 3 6 6 9 7 10 9 14 10 11 13 13 15 12 15 12 9 10 17 16 14 12 11 6 11 13 9 11 12 16 15 16 23 11 16 21 13 12 9 15 18 18 15 14 11 15 5 8 4 7 7 12 12 9 5 3 5 7 2 1 4 5 11 11 5 6 7 11 8 11 10 13 10
23 23 22 20 22 22 22 21 21 15 15 12 1 2 4 3 11 2 2 6 8 12 10 11 11 12 15 14 18 13 18 10 13 18 19 19 17 18 18 15 16 18 16 14 14 17 15 16 2 8 8 10 6 13 19 19 17 19 22 14 7 3 3 9 13 12 14 11 6 3 5 2 3 4 6 5 5 9 8 4 3 11 9 11 5 7 12
22 22 23 23 21 22 22 21 20 18 16 16 2 3 5 2 9 4 4 2 11 15 10 11 10 11 9 12 5 11 16 10 11 17 9 12 17 15 17 14 12 8 12 14 16 17 17 18 19 14 16 13 10 5 10 12 18 27 19 15 4 2 6 10 14 17 18 13 10 7 9 7 5 5 8 6 5 6 9 9 12 4 4 13 5 13 14
23 23 24 24 24 24 23 20 19 16 13 14 2 5 3 5 3 3 2 3 9 7 9 7 14 16 15 17 10 15 14 12 11 4 11 5 3 6 1 13 19 17 16 14 11 10 16 15 15 15 16 11 3 8 7 10 15 21 11 13 10 10 13 15 13 17 18 15 15 9 6 8 8 8 7 9 9 7 9 10 10 6 5 13 14 13 16
24 25 25 26 26 23 24 23 21 19 18 11 3 7 4 7 4 9 2 9 11 13 15 14 19 21 20 15 18 15 21 20 17 13 10 9 7 9 13 16 15 14 17 17 13 12 9 8 9 12 15 18 15 11 7 11 9 8 12 10 8 7 12 14 14 19 15 16 14 10 12 8 3 7 12 12 10 12 12 12 10 8 11 15 17 15 18
25 25 24 24 25 25 21 19 19 18 19 9 5 8 7 6 5 4 2 9 13 15 13 13 14 14 12 15 13 11 15 18 13 10 10 12 13 6 15 18 13 13 15 17 18 16 17 17 17 9 11 12 10 12 13 6 4 10 10 7 8 11 12 17 13 9 12 14 12 11 11 10 14 16 16 13 11 12 14 14 14 12 14 18 19 16 16
27 26 27 27 26 25 23 23 19 16 15 4 5 5 8 4 8 7 7 10 11 13 13 12 13 14 14 15 16 13 19 21 15 17 8 15 15 8 15 13 12 6 10 12 13 9 11 12 14 15 12 9 6 5 4 2 2 1 7 4 4 10 11 7 4 8 11 11 13 17 16 15 16 17 14 12 14 14 15 14 17 13 16 18 13 8 12
27 26 26 27 20 21 21 22 22 17 13 7 2 9 1 5 5 6 8 15 13 17 12 13 12 16 11 10 14 13 17 14 8 16 9 14 15 13 7 5 8 12 14 15 13 13 13 13 12 11 12 11 12 11 12 11 7 3 7 5 5 7 7 9 8 11 13 11 14 16 11 6 8 14 19 21 22 19 17 12 9 13 17 13 9 14 17
28 28 26 25 25 24 23 21 21 18 10 6 6 8 5 6 6 7 8 16 12 14 13 15 18 15 12 16 20 18 20 18 14 14 4 3 3 8 12 15 14 14 16 15 10 9 9 8 10 9 11 12 13 13 13 15 13 11 7 4 4 9 10 10 9 10 9 9 6 6 7 11 15 15 19 21 21 21 18 16 16 16 13 12 13 13 10
27 27 24 24 24 24 24 25 23 22 15 9 7 11 9 6 9 9 9 15 15 11 13 15 14 14 16 19 17 19 19 17 18 12 20 15 13 9 12 13 12 18 8 3 4 9 10 9 9 11 13 14 16 17 18 18 16 11 10 10 7 11 12 11 7 4 6 5 8 6 16 16 13 11 6 7 12 13 15 20 19 16 13 15 14 12 11
28 28 28 26 26 25 24 22 22 23 20 9 6 11 8 7 8 6 8 14 17 12 15 16 15 19 18 20 21 21 21 21 19 21 22 20 16 12 8 11 14 16 8 5 4 7 9 12 13 13 16 14 16 18 21 19 19 16 12 14 12 11 12 8 2 4 5 2 8 7 12 6 3 3 4 4 3 6 6 10 15 16 16 15 14 15 17
28 28 28 27 26 26 25 24 24 23 23 17 9 9 8 7 9 9 10 10 12 11 12 16 14 17 17 20 21 22 18 18 17 14 17 12 17 17 13 11 15 12 6 5 7 8 10 6 10 7 8 6 7 10 13 17 19 18 19 18 16 14 12 10 9 8 11 7 12 17 1 6 2 3 3 8 9 10 14 12 14 12 11 12 14 16 16
29 29 28 27 27 28 28 25 25 28 25 23 9 9 9 8 10 9 7 11 16 12 12 17 12 15 18 18 15 16 14 14 15 14 12 10 10 9 13 12 7 5 6 5 5 4 9 4 7 8 7 6 9 10 4 6 7 22 22 20 19 18 16 11 12 8 12 12 9 4 5 16 9 7 6 10 13 6 5 3 11 5 12 15 16 17 16
30 29 29 29 28 28 30 29 28 27 27 27 12 9 10 10 10 11 11 12 13 21 14 15 14 10 11 12 11 16 15 11 9 8 8 7 8 4 5 5 7 8 3 3 3 4 3 4 8 6 9 8 7 6 3 3 5 5 18 20 20 18 19 15 15 10 9 12 11 10 12 13 8 11 10 5 7 9 7 5 8 9 12 16 16 15 15
31 31 31 31 28 29 28 28 28 30 27 25 14 11 11 9 9 9 10 10 13 21 15 16 14 15 14 12 12 13 10 13 9 8 7 7 7 8 4 4 5 5 8 4 4 2 3 6 5 8 6 6 7 9 10 2 5 4 5 16 21 20 15 12 12 12 11 10 11 12 6 7 12 13 6 8 11 12 9 1 8 14 20 12 12 15 14
31 31 31 31 31 31 32 31 31 29 29 31 16 10 12 9 10 10 10 13 16 17 11 12 13 14 14 11 15 10 5 4 3 4 6 5 2 2 2 1 2 4 7 5 2 4 7 6 8 8 10 5 4 3 13 3 5 7 5 9 8 9 9 12 18 13 14 14 9 5 6 3 5 13 9 11 11 10 6 12 13 17 4 10 14 12 11
32 33 34 32 32 32 31 32 31 32 32 33 20 14 12 11 10 10 11 11 12 17 8 8 11 17 13 8 12 6 5 8 8 7 8 9 6 8 7 5 5 3 5 8 6 7 6 7 4 3 6 5 5 9 5 9 8 1 3 5 7 11 10 7 10 12 12 10 10 10 6 6 9 5 16 13 9 5 11 16 8 7 9 9 11 13 12
34 32 30 33 34 35 35 35 34 32 32 32 22 15 14 13 11 12 11 14 12 18 13 13 11 19 8 10 13 11 9 10 9 11 12 12 1 4 0 3 1 3 4 3 9 4 6 10 9 2 7 6 5 2 3 7 5 8 2 8 11 10 9 9 12 8 7 7 9 8 12 3 17 11 5 8 8 10 14 3 1 7 8 12 10 10 9
32 34 35 36 36 36 35 37 37 37 37 37 26 15 16 10 10 10 12 14 14 18 15 12 14 20 17 19 19 17 17 18 13 10 10 11 5 5 8 6 6 6 7 6 11 9 4 8 7 6 3 4 4 4 10 10 11 11 15 11 9 7 5 5 6 7 6 9 9 9 5 11 20 20 13 13 19 14 5 7 3 4 7 9 8 6 7
36 37 39 39 40 39 39 39 36 34 35 32 33 16 15 11 7 8 10 10 11 14 13 11 12 15 15 16 14 15 15 16 17 13 11 11 7 11 7 5 6 4 3 2 0 1 1 2 1 2 4 4 1 8 4 7 8 4 3 3 7 7 10 8 11 10 9 9 13 14 2 6 13 20 17 16 20 5 5 5 7 6 4 4 7 7 6
40 40 40 40 39 38 33 34 36 34 34 35 26 11 16 11 10 9 8 11 11 12 10 11 11 14 12 14 13 14 16 16 16 14 13 11 9 10 11 11 11 5 3 4 6 4 4 4 8 2 5 3 6 6 5 7 6 4 9 4 7 3 7 4 3 4 6 8 2 3 4 11 13 13 13 6 7 2 5 7 6 5 5 7 7 5 7
41 39 38 36 34 34 36 38 35 34 35 30 23 12 13 11 8 7 7 9 12 14 13 13 12 13 13 18 16 16 16 14 14 16 15 14 12 8 7 7 3 3 4 7 7 8 4 4 4 3 9 2 1 4 7 7 7 5 7 8 1 4 3 4 6 2 6 7 9 10 3 7 15 16 9 2 3 9 8 5 6 5 6 5 5 5 6
39 38 38 37 37 38 37 36 36 34 33 34 25 14 11 9 5 7 9 11 7 8 12 6 13 13 12 8 7 8 11 13 13 13 12 13 14 12 11 11 13 13 12 11 5 5 3 7 4 3 9 3 6 9 5 8 7 3 8 7 4 7 2 3 4 2 5 5 3 4 5 7 7 10 10 11 5 1 3 5 4 5 5 5 4 4 3
37 37 37 38 38 38 36 35 37 33 30 30 27 14 9 9 6 5 6 9 9 7 11 13 10 2 7 9 10 13 11 11 11 14 17 17 16 16 15 10 7 5 4 3 3 10 8 6 5 7 7 5 5 6 6 7 8 0 3 1 3 7 10 3 4 3 5 8 3 8 3 1 5 7 3 2 4 4 4 3 3 4 5 4 3 2 3
39 39 40 39 40 37 38 36 35 33 32 31 18 10 9 7 7 8 9 9 8 10 9 12 4 4 0 6 3 2 3 7 9 12 14 16 16 13 12 13 13 10 7 7 7 7 6 7 7 8 8 7 5 4 5 4 7 8 2 5 11 3 0 7 5 2 4 1 4 13 2 2 2 3 2 2 1 4 6 4 3 3 5 4 6 6 5
40 40 40 39 40 38 34 35 34 34 34 31 18 9 5 5 7 9 9 8 9 13 10 10 8 6 3 10 12 14 13 11 11 12 12 12 13 12 13 14 14 12 10 9 8 7 7 10 10 6 6 4 4 7 3 2 6 5 5 5 8 4 6 7 5 4 1 7 8 9 8 9 10 9 9 9 9 7 0 1 1 1 1 2 7 9 6
40 40 40 38 36 36 36 35 34 33 32 23 6 5 4 6 7 6 7 5 5 7 7 9 8 5 6 7 2 2 7 10 11 11 12 13 14 12 13 14 14 10 8 7 8 8 8 7 5 6 5 5 4 4 3 5 8 6 4 8 7 7 8 7 7 11 12 9 12 12 8 8 9 12 11 12 11 7 10 10 9 8 7 8 9 6 9
40 39 37 37 35 35 35 34 32 29 23 4 2 1 3 5 2 3 1 1 2 3 6 7 6 6 1 1 7 6 6 9 11 13 14 13 13 12 12 12 11 11 9 8 10 9 8 6 4 5 4 6 7 2 2 7 4 5 5 9 9 10 10 8 8 8 9 14 15 14 13 12 9 3 9 12 14 13 10 11 11 10 11 10 13 12 11
39 37 37 37 36 34 33 33 31 25 10 3 3 2 2 3 2 1 3 4 2 2 2 2 7 4 5 4 5 9 9 4 8 10 14 13 12 12 11 8 9 9 9 10 9 10 6 6 7 7 4 10 10 4 5 5 5 4 9 12 10 11 11 11 9 9 12 14 16 16 8 7 11 5 9 18 16 14 11 11 13 13 13 16 15 12 10
37 37 37 36 35 33 31 28 23 14 4 3 1 2 3 5 8 9 10 5 5 3 1 2 2 1 2 2 1 2 4 6 2 3 4 5 8 8 8 10 10 10 12 9 8 6 9 10 9 3 2 6 5 5 6 6 5 3 14 12 12 11 11 10 10 10 13 14 16 9 2 11 15 14 8 13 13 13 13 12 12 11 12 12 11 12 11
36 37 36 34 33 30 27 22 16 12 5 6 2 6 14 19 19 17 11 2 3 1 1 1 3 2 2 3 5 4 4 2 3 1 3 3 5 4 6 10 9 7 12 10 6 7 7 7 9 5 3 5 6 5 7 7 5 10 11 12 12 13 13 11 8 8 11 13 12 9 8 9 10 10 10 10 12 13 12 11 9 8 11 13 14 13 12
37 35 33 32 29 27 22 15 15 15 7 5 4 7 9 22 19 19 4 5 1 1 0 2 3 4 5 5 3 1 7 5 5 1 4 4 3 4 5 5 8 6 8 11 5 2 6 7 7 4 4 9 5 6 6 5 9 11 11 11 12 14 13 9 5 11 13 13 12 9 9 9 6 5 10 13 13 13 11 11 10 12 13 13 12 11 9
36 32 30 29 27 23 17 10 8 6 4 3 1 1 6 17 24 21 12 1 2 3 4 3 2 4 7 7 4 5 5 5 5 2 3 4 2 4 5 4 6 7 5 7 7 6 5 5 3 8 7 4 7 8 4 10 13 12 12 12 14 14 14 12 10 14 14 13 10 10 10 10 10 13 13 13 12 12 13 13 12 11 12 11 10 11 10
32 30 27 26 23 15 4 4 6 8 5 5 7 13 13 6 13 10 13 13 6 3 3 3 3 5 4 4 7 5 7 8 4 3 3 3 3 3 3 3 3 4 7 7 5 6 6 8 3 7 6 8 7 4 6 9 11 12 11 11 11 11 10 11 13 17 16 13 5 9 10 12 14 12 10 10 11 13 12 12 13 13 12 10 10 9 9
28 26 24 17 6 4 3 2 4 3 5 12 16 6 18 8 2 4 5 5 7 5 6 1 6 6 6 6 4 5 7 7 6 6 2 2 4 2 0 1 5 5 5 6 5 6 5 6 10 9 8 6 5 5 7 8 8 10 10 10 10 9 10 10 12 14 16 9 5 10 9 11 11 11 10 11 12 11 14 16 14 14 13 12 10 9 8
23 19 7 6 6 6 4 4 5 15 25 18 11 3 8 7 4 3 4 5 4 6 5 4 6 3 3 4 5 6 5 5 6 5 4 2 5 3 1 1 4 5 6 4 4 6 5 7 8 8 8 5 5 6 8 8 7 7 7 8 9 9 9 10 12 13 14 12 11 16 14 13 11 11 11 12 12 13 11 9 9 9 8 8 8 7 7
12 4 3 3 3 3 4 9 16 26 11 2 6 2 4 3 4 4 4 3 3 7 5 5 7 6 8 6 8 7 3 7 9 3 5 4 3 3 2 3 4 4 4 4 3 3 6 5 4 4 6 6 7 11 9 7 7 7 8 8 9 9 9 9 10 9 9 6 7 7 7 8 10 11 9 8 8 8 8 9 9 9 8 7 7 7 7
7 9 6 3 3 2 5 12 22 10 3 4 5 4 3 3 6 3 3 5 5 2 4 7 5 5 6 7 7 11 7 7 5 6 5 10 2 4 2 2 3 4 5 4 3 5 5 5 4 4 5 8 9 11 9 9 8 8 8 9 9 9 10 9 8 7 7 7 6 6 6 6 6 6 7 8 8 8 8 8 7 7 7 7 7 7 7
6 4 2 2 3 3 3 9 6 5 5 4 4 4 3 5 3 1 3 3 3 2 2 4 5 7 2 2 3 9 6 3 6 5 5 6 5 3 3 3 2 6 5 5 3 4 4 5 4 5 4 7 8 11 11 10 9 9 9 9 9 9 10 9 8 7 7 6 6 6 6 7 6 6 6 7 7 6 5 5 5 6 5 6 7 7 6
5 2 2 0 1 1 3 4 7 5 4 2 3 2 2 1 2 5 3 4 4 4 6 7 9 11 13 11 9 5 9 3 4 3 3 4 6 4 2 2 3 5 4 3 3 4 4 6 5 3 6 9 10 10 11 11 11 11 11 10 10 9 9 8 8 7 7 6 6 6 6 7 7 6 6 6 6 5 5 5 6 5 5 5 4 4 5
10 6 6 5 3 4 2 7 7 3 5 6 5 4 4 4 3 3 5 1 1 2 4 1 3 10 8 3 7 4 6 5 4 4 2 4 5 2 3 3 3 5 2 2 4 4 7 6 4 5 6 8 9 11 11 10 11 10 9 8 9 8 8 8 8 8 7 7 7 7 7 7 6 6 4 4 4 6 5 4 6 6 6 5 5 4 5
2 5 7 3 5 5 4 6 3 5 5 3 3 3 4 6 7 5 6 7 6 3 4 12 13 13 12 5 5 8 6 4 3 3 2 2 2 3 3 5 5 2 3 5 5 7 5 4 2 6 6 8 8 11 11 12 12 11 10 10 10 9 9 8 8 8 9 7 6 7 6 5 6 6 6 4 4 6 5 5 6 6 5 5 5 5 5
3 7 4 4 5 5 4 4 4 5 5 4 3 1 2 5 10 7 6 3 2 12 12 7 8 8 13 10 4 5 4 5 6 2 2 4 2 4 3 3 1 2 4 5 4 3 3 4 4 6 9 11 11 12 11 10 9 10 11 10 9 10 10 10 9 8 7 8 8 8 6 7 6 6 5 5 4 4 6 7 7 6 6 5 5 6 6
8 2 4 6 8 6 4 1 2 4 2 1 1 2 7 8 6 12 8 5 10 11 11 11 10 8 12 6 2 4 4 3 4 2 3 2 2 4 3 1 3 6 4 4 5 5 2 3 7 7 10 10 11 11 10 9 8 8 9 10 10 10 9 8 7 7 8 8 8 7 7 7 7 6 7 7 5 6 6 6 6 6 6 7 8 8 8
5 4 3 1 5 2 2 3 3 0 2 2 3 5 7 9 9 10 9 5 10 9 11 8 8 7 8 6 3 3 2 1 2 3 3 4 3 1 3 6 7 5 4 4 4 1 3 4 6 8 9 10 11 12 11 10 10 10 9 8 9 9 8 7 7 7 7 6 6 6 6 6 6 6 6 7 6 5 5 5 6 5 5 6 6 6 6
6 1 3 6 5 1 5 1 0 4 3 2 7 6 7 6 7 10 8 5 7 7 9 8 8 3 3 4 2 4 3 3 2 4 3 2 2 3 3 5 4 3 2 3 1 1 3 5 6 8 8 8 9 10 11 11 12 12 11 10 11 10 10 9 9 8 7 7 7 7 7 7 6 7 6 7 7 4 5 5 5 4 5 5 6 6 6
6 4 4 2 1 1 1 1 4 5 7 7 6 7 6 7 8 10 9 5 5 7 6 3 4 2 5 2 1 2 4 5 5 3 4 6 5 3 2 3 4 3 1 1 2 2 4 6 7 7 8 8 8 8 8 9 9 10 10 10 10 10 8 8 9 8 8 6 6 7 7 7 6 6 6 5 5 6 6 5 6 7 6 7 7 7 7
7 5 5 4 4 2 2 2 0 4 7 6 7 8 7 7 9 9 4 9 6 6 4 4 4 2 3 1 1 2 2 3 2 2 6 6 3 2 2 4 1 0 3 3 4 6 6 5 6 7 7 8 9 8 9 10 9 9 9 9 8 9 9 9 8 8 8 6 6 7 7 6 6 6 6 7 6 6 5 5 7 8 9 8 7 7 7
3 5 2 0 5 3 5 8 10 10 12 12 12 11 10 10 9 11 8 7 9 5 2 2 1 1 2 4 3 3 1 1 5 6 3 2 2 3 3 1 1 1 5 5 5 6 6 5 5 6 7 8 8 9 9 9 10 10 10 9 9 8 8 8 7 7 8 6 5 6 6 6 5 5 5 4 4 4 4 5 7 7 7 7 7 7 6
4 5 4 5 0 0 1 2 2 2 5 8 8 8 7 10 11 10 7 5 4 6 4 3 1 2 4 5 1 1 2 3 3 2 5 3 2 2 1 3 5 4 6 7 7 6 5 5 5 6 7 8 9 10 10 11 11 10 10 10 9 10 9 8 7 7 7 6 6 6 6 6 5 4 3 3 5 8 9 8 8 8 7 5 6 5 5
Wind_Direction
318 319 318 321 320 322 329 331 332 332 332 344 301 317 273 217 256 155 167 172 149 180 236 218 217 236 245 302 260 249 259 255 222 226 196 227 225 243 236 236 242 235 235 241 239 209 240 207 227 212 223 227 208 220 175 161 155 155 283 33 245 95 157 260 282 313 306 307 280 294 271 222 279 251 224 196 216 210 219 239 270 279 288 296 276 243 221
318 317 314 320 320 324 328 331 334 335 335 324 328 261 262 266 271 271 202 182 161 211 242 239 232 241 249 235 251 236 245 245 252 236 226 215 199 217 225 247 219 245 224 221 231 216 263 210 226 241 224 239 208 224 213 160 196 167 221 181 195 102 241 166 265 329 336 347 333 354 359 83 183 216 222 204 228 231 236 265 24 256 236 246 261 259 240
317 316 317 318 317 319 319 324 323 329 331 335 60 292 291 290 253 235 196 200 201 221 227 247 254 256 254 254 252 250 234 226 239 247 242 226 222 238 238 230 222 233 217 231 226 216 222 251 208 220 218 233 204 221 216 199 212 206 203 192 175 195 171 126 211 239 258 256 193 236 261 224 223 254 214 187 191 208 177 227 214 236 235 226 236 260 258
316 318 317 318 317 317 316 315 323 334 325 326 338 256 325 234 293 120 348 188 235 240 237 240 245 251 255 257 252 243 255 237 217 222 239 227 227 224 242 232 219 228 233 235 232 240 236 236 218 193 226 226 214 210 217 204 212 220 214 199 147 200 198 193 214 220 239 234 196 229 107 107 174 245 188 209 179 196 194 230 226 232 255 251 245 286 294
314 315 315 316 317 315 314 318 329 328 323 318 327 257 219 337 266 331 287 347 220 235 227 238 235 244 247 258 252 250 248 250 248 198 246 216 224 237 231 234 230 216 224 239 243 231 236 229 237 231 236 217 219 238 218 221 218 224 221 205 111 88 225 225 227 230 236 234 207 202 155 205 210 158 203 198 180 187 190 199 224 212 5 271 241 266 273
319 317 315 316 315 316 317 319 312 311 307 310 291 251 188 253 235 230 230 203 264 274 249 230 250 258 257 261 274 263 267 252 261 213 223 266 263 254 260 245 239 241 239 248 253 243 243 234 239 240 244 260 221 253 215 201 219 222 228 196 198 206 229 228 216 235 234 234 233 181 163 199 194 183 188 190 200 200 195 225 230 229 224 255 261 255 266
316 315 316 312 311 314 314 313 311 315 307 303 194 262 237 232 285 265 242 267 260 260 276 278 272 273 263 268 260 262 264 262 262 268 278 255 236 207 261 251 247 239 243 245 250 244 269 251 223 230 236 226 232 236 246 243 233 211 214 208 199 211 230 235 218 232 232 234 230 209 195 218 212 228 229 233 221 214 217 232 236 214 232 244 256 263 261
313 312 309 310 309 309 318 319 318 314 312 313 241 238 267 225 268 288 225 260 273 271 280 275 282 271 268 276 256 274 271 275 273 259 254 261 260 220 243 260 265 260 255 247 246 247 253 264 267 242 245 255 239 247 227 243 252 208 208 198 210 195 227 222 231 241 238 235 237 237 227 223 238 236 234 236 236 239 230 233 242 235 245 250 252 259 273
312 312 312 307 311 318 316 312 308 311 313 266 247 238 216 265 255 265 261 253 256 269 259 262 260 266 256 251 269 262 263 269 273 274 258 264 279 273 270 277 297 334 316 305 288 300 303 305 296 305 308 294 307 298 11 311 281 237 228 203 235 202 235 231 232 241 239 225 227 229 226 225 234 249 242 231 232 237 232 223 223 210 228 241 248 259 259
310 309 304 309 316 306 309 308 307 304 310 279 241 265 188 262 252 229 240 256 248 262 254 256 266 248 245 254 263 263 269 274 304 289 250 244 244 259 280 295 301 295 294 283 293 303 297 286 285 278 274 265 257 254 258 271 265 214 224 223 220 198 211 218 222 238 235 227 217 226 223 224 256 244 238 229 229 227 236 234 229 214 216 234 230 234 237
309 307 314 315 312 312 308 305 304 305 305 263 266 267 263 251 275 251 245 264 250 250 256 247 242 255 266 252 267 261 265 263 259 263 281 96 296 286 280 287 289 283 276 287 288 279 272 275 273 274 267 263 263 259 259 250 237 223 211 212 209 208 211 222 203 233 231 220 182 154 142 211 225 228 224 223 228 231 231 238 228 224 200 222 222 241 256
307 314 317 313 310 309 309 307 307 302 298 268 242 259 258 254 259 251 233 245 260 251 246 249 245 266 257 265 260 262 262 260 258 249 265 263 266 276 278 277 280 271 282 261 266 288 295 285 266 251 249 252 254 253 248 247 246 221 209 213 206 207 212 225 197 225 224 117 134 165 217 223 229 224 227 204 223 231 224 234 236 235 219 228 240 238 246
318 316 315 312 309 309 308 307 302 300 293 276 253 260 260 233 241 230 244 257 261 257 261 257 250 255 257 261 262 260 262 263 262 259 257 262 266 256 248 255 252 263 277 250 288 302 293 286 285 275 266 258 248 244 243 237 237 229 208 205 205 207 209 208 217 172 38 114 183 205 229 230 217 182 99 129 161 205 201 251 246 231 219 217 230 236 241
315 312 311 311 310 308 306 305 301 295 294 291 276 262 264 243 241 229 251 272 256 251 262 269 254 262 259 256 259 264 264 262 263 257 266 261 259 253 245 237 247 260 264 278 268 251 266 257 271 274 273 261 258 251 238 231 225 225 216 211 211 212 212 205 229 171 215 183 208 225 328 342 201 136 163 175 191 178 179 221 243 214 210 199 219 229 237
313 313 312 311 309 307 305 302 300 298 296 294 279 276 258 246 246 256 261 254 265 263 250 262 271 261 261 258 255 263 258 260 262 259 244 252 254 239 242 244 256 265 245 247 248 226 233 249 256 267 268 260 275 278 277 247 214 216 220 214 211 209 214 202 222 209 198 221 231 245 246 244 215 189 217 201 220 182 175 154 268 226 194 203 209 224 233
314 313 312 311 310 308 306 304 302 300 298 295 283 272 260 250 248 249 249 246 266 264 251 261 273 276 266 263 255 257 264 260 249 261 256 237 237 278 258 228 234 236 230 212 191 203 198 212 249 248 255 258 274 289 281 294 298 245 209 216 215 217 220 218 214 226 194 217 229 219 225 242 164 196 205 190 177 142 123 127 251 258 213 207 203 218 226
314 313 311 311 308 306 306 306 304 302 300 297 291 285 272 253 244 240 244 246 245 263 275 267 267 265 269 267 257 253 254 258 252 248 253 236 232 228 247 208 227 200 221 212 224 181 238 229 237 248 261 257 265 258 277 247 269 306 249 215 215 215 215 214 226 220 214 210 221 231 217 256 172 180 174 158 130 129 101 131 257 250 238 191 184 208 217
315 313 313 312 311 310 308 307 305 302 300 299 292 280 278 271 253 249 246 247 258 261 250 253 257 258 255 261 267 264 251 257 199 245 242 250 250 195 267 185 264 261 158 217 185 225 236 237 240 246 255 212 243 244 252 238 237 236 212 188 209 213 210 207 211 213 222 219 237 242 257 106 186 164 147 136 136 116 159 220 234 248 256 154 186 198 210
315 314 314 312 312 311 309 305 303 304 303 302 301 286 268 260 248 239 255 249 240 259 244 242 235 253 259 262 254 242 231 253 257 257 257 260 218 208 195 226 170 243 174 220 206 228 234 239 216 231 260 240 197 242 256 242 244 225 248 272 251 219 214 214 205 212 209 210 226 234 251 198 142 105 139 150 110 185 208 228 218 100 144 168 165 192 205
316 316 312 312 311 311 310 308 305 303 301 300 298 282 285 279 256 244 249 246 253 261 260 248 240 250 234 239 249 244 240 234 221 236 245 247 122 134 206 277 198 192 253 133 235 189 230 240 235 217 234 238 226 233 261 250 262 246 239 213 212 210 210 204 211 204 215 203 228 234 239 143 136 143 100 182 182 219 218 116 90 154 142 163 189 184 196
317 317 315 315 313 309 306 305 305 305 304 303 300 294 288 268 263 244 231 246 258 257 255 235 241 246 244 243 245 246 245 249 235 232 231 242 188 135 224 212 184 166 204 179 225 220 193 236 208 218 218 218 240 218 248 263 255 247 234 233 232 197 223 209 228 183 211 202 210 235 203 180 165 150 176 198 210 217 135 118 107 158 154 160 170 195 184
319 317 315 313 311 312 312 312 309 306 305 303 303 299 285 279 259 249 245 240 242 245 266 253 241 250 243 238 239 238 244 246 242 242 252 251 182 206 226 221 208 201 233 136 60 333 215 217 193 205 255 259 180 232 254 269 266 286 309 304 280 178 212 178 210 179 197 207 224 235 234 153 172 180 207 202 206 73 143 122 150 135 201 153 143 193 201
319 316 315 314 314 313 309 307 308 308 305 305 304 285 287 291 274 267 247 252 249 259 258 258 249 249 250 248 238 239 233 229 233 227 225 239 236 211 219 225 228 202 220 167 209 210 224 203 240 212 270 225 235 268 248 225 265 264 273 202 252 297 268 323 6 270 235 249 125 89 140 161 194 210 218 197 199 200 124 155 163 197 155 171 182 180 182
319 318 315 313 311 311 313 312 310 308 306 304 302 288 290 284 280 286 266 250 252 266 261 240 248 249 236 247 236 229 233 233 231 230 219 211 228 218 219 230 234 234 226 216 205 231 216 211 244 224 247 209 93 218 247 261 237 244 260 280 273 285 281 267 242 267 187 239 221 219 204 188 187 210 227 273 207 194 182 181 185 172 170 177 200 164 173
318 316 316 315 315 315 314 314 313 312 311 309 306 297 289 282 256 241 254 268 263 263 278 274 237 252 255 250 261 258 233 231 226 227 230 225 224 228 228 210 204 215 218 217 206 223 196 225 210 192 242 210 165 249 209 245 251 161 280 255 282 272 2 276 253 275 220 253 301 313 151 194 210 200 202 224 233 203 195 200 176 148 176 180 167 119 125
319 317 317 317 317 317 316 314 314 313 312 310 309 301 288 271 271 248 238 255 263 260 276 273 277 226 221 220 215 220 222 218 219 219 222 223 221 222 234 240 247 216 243 248 194 224 221 226 205 228 233 244 172 240 242 212 264 315 204 344 6 297 329 226 338 258 287 310 346 9 45 41 207 221 248 223 173 156 196 194 150 142 137 133 131 116 157
320 320 319 319 318 318 319 319 318 315 310 310 304 289 281 264 228 228 229 251 275 274 233 255 285 307 0 247 260 307 256 230 214 221 227 228 227 221 220 227 235 236 220 220 213 221 219 226 217 226 213 243 216 219 216 263 228 265 254 16 339 295 94 346 314 203 252 286 9 344 352 325 272 268 334 18 335 179 165 145 121 119 134 157 120 77 60
323 321 320 320 320 320 320 319 317 314 313 310 309 296 250 242 228 226 232 229 215 247 275 277 291 283 316 270 244 236 236 231 227 230 238 240 232 228 227 225 227 234 222 214 220 217 213 217 222 216 230 222 214 259 197 194 72 59 70 13 360 21 354 340 346 329 0 5 349 359 298 288 4 3 22 13 2 334 38 102 88 173 163 137 122 119 74
323 323 323 323 323 323 323 321 319 316 316 321 313 310 290 249 250 248 248 235 232 254 257 267 276 305 270 272 52 260 239 238 237 232 231 232 228 221 222 222 221 217 215 209 226 233 225 224 215 212 208 180 183 225 147 217 221 223 47 342 357 10 352 347 335 317 285 314 337 327 327 319 350 353 2 13 352 5 50 31 29 34 42 67 63 56 100
325 325 327 326 325 326 325 322 320 321 328 2 48 27 354 312 280 233 286 272 177 205 235 258 275 259 338 326 272 250 243 223 230 229 227 226 224 220 218 214 220 216 216 215 214 226 218 228 214 221 225 154 193 213 194 216 193 97 32 2 349 357 349 342 343 334 320 320 312 306 297 305 308 1 23 18 12 20 45 41 30 40 37 43 65 63 48
327 328 327 327 328 326 325 324 325 331 353 77 74 51 352 330 279 156 322 287 181 207 247 253 249 317 310 252 243 272 285 273 227 235 233 228 226 222 217 207 218 203 208 214 215 223 213 213 214 216 183 191 203 218 243 191 114 135 18 351 3 346 345 326 322 324 336 323 311 297 270 359 345 298 19 16 5 7 31 39 40 50 59 63 57 56 54
331 330 330 331 327 326 325 325 329 337 50 72 97 190 184 228 261 282 289 295 126 168 215 287 316 307 249 277 274 300 332 306 290 242 236 212 229 215 211 197 218 194 209 207 204 215 216 220 219 216 80 333 17 78 37 41 69 8 343 345 348 342 329 325 318 342 343 333 333 315 35 18 25 29 2 354 1 7 28 39 34 36 53 65 64 61 57
333 333 332 330 327 327 328 333 345 4 358 312 314 345 341 340 298 275 264 104 88 256 317 131 215 263 276 260 313 2 320 308 337 16 290 195 225 169 204 203 208 199 208 216 178 202 206 192 211 107 347 352 68 71 73 53 19 335 337 342 342 337 327 317 315 353 343 341 353 17 354 359 359 7 7 6 16 18 14 26 31 40 49 49 46 42 38
334 334 334 328 327 329 335 344 11 356 4 25 18 350 359 21 18 18 61 91 128 106 82 18 0 350 287 331 13 309 33 348 293 320 293 247 185 169 190 180 185 191 173 205 185 129 15 44 39 61 50 33 20 79 63 29 357 345 346 342 344 338 331 321 343 358 345 338 340 5 357 340 347 359 17 16 12 10 20 21 22 44 48 49 44 35 25
335 338 334 330 329 332 338 16 23 13 353 354 207 224 300 27 37 30 26 29 78 38 40 34 49 8 349 341 5 293 2 359 316 293 260 280 201 210 195 207 156 197 159 128 38 9 46 44 17 56 27 8 39 44 28 337 342 347 347 346 349 347 351 356 350 347 333 326 337 359 1 5 19 29 19 9 10 9 17 24 24 36 48 42 36 28 22
341 337 332 330 330 330 333 352 36 6 16 343 312 305 327 35 62 49 38 41 58 84 67 34 36 44 344 322 318 303 349 315 267 286 245 262 287 209 201 193 161 76 39 44 65 27 41 325 38 55 358 59 47 349 320 329 338 341 346 347 348 356 347 335 318 324 322 310 348 2 3 21 34 23 14 8 12 13 16 24 23 31 41 37 28 20 21
342 335 331 325 348 48 27 15 352 59 323 295 298 342 18 356 153 78 46 51 34 37 66 74 47 24 4 291 282 281 337 310 330 315 309 290 274 267 138 194 108 102 76 53 56 62 49 32 79 68 42 47 37 2 345 331 346 341 344 343 342 342 339 335 332 329 319 311 8 10 9 15 24 19 10 12 10 9 19 25 17 17 19 17 10 13 11
340 336 349 344 20 23 350 346 352 320 319 325 347 79 1 18 4 1 23 32 35 48 28 60 69 336 307 324 282 303 318 270 346 307 294 275 317 299 232 143 75 86 72 75 67 144 96 42 58 80 84 84 87 27 3 345 349 343 344 341 341 344 339 342 342 349 351 1 4 353 353 6 17 15 7 360 5 15 20 15 13 14 11 7 6 0 354
343 314 20 17 70 26 340 302 327 326 318 4 7 77 13 12 10 24 10 359 6 17 359 46 12 349 347 333 300 307 10 329 315 317 307 342 349 295 13 60 99 95 114 97 107 176 73 66 92 77 68 27 20 9 6 347 350 348 349 346 344 342 344 342 352 354 353 350 341 355 4 352 351 348 354 352 357 10 13 9 6 4 0 351 352 357 350
359 11 5 3 25 291 308 326 337 338 18 44 357 57 57 8 37 5 338 10 3 23 5 18 15 353 350 350 348 300 321 337 330 323 330 305 293 308 317 63 52 68 61 61 35 17 90 78 47 66 43 13 7 359 355 354 349 350 349 347 348 347 350 345 342 345 336 325 339 351 8 9 8 360 351 350 352 357 359 358 353 344 353 343 352 -0 355
1 343 359 352 277 303 335 330 330 28 34 19 26 22 32 9 19 339 0 27 33 341 31 316 325 334 314 6 336 276 306 341 270 267 268 266 277 318 23 42 77 87 59 61 29 67 77 86 59 60 27 355 347 351 347 350 349 347 348 349 349 351 347 344 338 336 342 339 339 341 357 4 2 6 3 357 353 347 340 336 336 339 347 350 352 351 345
311 311 258 309 330 335 332 15 36 23 25 29 82 17 355 321 353 14 39 25 341 329 343 356 339 348 319 319 298 293 291 234 262 282 283 305 342 2 312 13 17 81 68 45 54 43 52 73 53 32 7 353 352 347 350 347 349 346 344 347 350 349 348 341 341 341 349 346 338 337 345 353 353 355 355 355 344 334 326 333 338 343 348 335 339 342 348
7 32 68 42 16 13 8 43 10 40 32 355 15 23 7 19 14 9 311 3 0 337 319 16 313 313 278 333 299 214 257 323 315 301 303 333 325 17 37 38 47 58 71 49 52 49 50 51 54 341 343 347 347 348 347 347 342 341 337 341 346 350 347 343 343 342 342 351 347 342 342 344 345 339 336 339 340 343 335 325 337 343 342 347 339 344 350
23 36 35 4 35 339 41 40 342 47 39 28 42 10 333 335 320 16 330 326 342 306 20 347 337 1 314 355 330 309 317 277 243 289 318 328 4 354 28 52 45 60 84 50 49 52 72 94 52 337 343 341 347 348 345 345 345 339 339 343 342 350 352 348 350 353 353 352 350 348 338 340 337 335 339 333 347 358 341 340 346 349 341 342 345 347 347
71 15 25 29 37 327 43 42 4 77 43 346 28 41 353 295 297 326 274 292 350 298 317 318 313 322 290 300 288 250 261 291 301 345 323 342 22 28 46 61 41 40 57 82 81 103 91 49 13 356 354 350 347 345 342 340 342 340 329 321 337 350 355 356 353 351 350 353 349 344 344 339 337 334 331 331 339 5 8 352 339 343 341 345 340 353 356
49 62 27 56 39 356 61 56 357 24 18 66 359 290 289 271 271 280 279 295 293 305 305 312 309 304 288 272 256 305 325 327 326 4 332 306 51 31 25 35 37 70 64 51 50 51 43 8 351 348 347 343 339 338 338 335 333 330 339 342 338 341 348 350 347 350 352 353 348 346 339 341 336 337 334 334 344 2 1 351 347 346 339 355 360 355 347
60 22 61 106 89 359 56 61 356 337 302 291 262 272 269 274 269 270 279 293 283 288 295 292 284 272 278 303 312 282 252 341 332 323 12 37 37 65 38 62 39 13 49 52 36 341 328 1 343 339 337 337 336 337 339 339 341 343 343 336 338 341 342 341 340 343 346 348 344 346 336 336 333 333 336 346 346 358 355 349 348 347 357 358 347 346 350
65 322 62 61 40 6 30 335 319 313 281 260 286 273 267 287 300 292 281 262 269 293 294 316 320 327 288 231 178 270 319 333 3 14 33 299 299 35 26 56 64 60 29 90 54 0 305 324 331 330 330 331 330 333 338 341 341 342 342 341 340 341 344 342 341 345 348 347 350 345 343 341 344 344 342 334 327 334 351 342 351 348 356 353 354 355 360
87 76 72 104 90 64 329 287 13 311 284 287 279 279 290 303 282 282 292 288 283 282 271 253 268 323 292 241 201 349 15 349 48 336 6 18 48 20 29 55 8 35 29 94 252 298 310 320 318 320 322 327 328 333 335 334 334 336 337 336 338 337 335 335 335 336 345 347 351 351 350 345 343 340 335 336 343 335 336 337 359 2 3 1 358 -0 0
59 40 34 37 2 357 325 307 260 290 306 318 335 330 324 314 313 304 319 315 305 308 290 206 197 216 259 336 10 29 49 10 53 357 48 39 31 331 61 59 27 191 292 338 312 303 307 308 313 318 323 325 325 335 337 335 336 335 335 334 333 337 339 336 335 343 344 345 346 344 345 344 343 339 340 338 323 313 322 355 11 3 358 359 2 359 355
31 91 93 168 86 305 344 12 349 338 343 343 341 333 339 324 323 314 338 318 322 333 41 45 299 321 344 17 28 41 353 350 53 32 71 53 331 56 56 84 275 270 282 297 289 293 300 306 317 314 323 325 329 335 338 333 331 331 335 338 336 333 335 342 338 340 340 343 347 353 352 350 330 312 303 311 327 342 4 16 12 2 354 349 355 353 345
54 38 10 328 34 12 356 258 251 236 278 297 313 306 333 320 329 313 330 342 334 47 359 295 39 21 52 47 346 254 298 50 53 40 36 15 47 76 315 280 292 316 311 312 309 309 306 306 314 318 316 319 326 334 335 333 331 330 339 339 337 338 338 338 338 335 335 338 347 347 335 338 328 326 313 354 15 23 20 360 346 348 346 344 338 338 327